map of KOCQ home
Great Circle Mapper logo
KOCQ - Airport
Location
City:  Oconto, Wisconsin, United States
Name:Oconto-J Douglas Bake Municipal Airport
ICAO:KOCQ
FAA:OCQ

Details
Type:Airport (Airfield)
Use:Public/Civil
Latitude:4452'27"N (44.874056)
Longitude:8754'35"W (-87.909769)
Datum:WGS 1984
Elevation:604 ft (184 m)
Variation:4.13W (WMM2015 magnetic declination)
-0.04 annual change
Runways:2
Longest:3198 × 75 ft (975 × 23 m), paved

Time
Time Zone:UTC-6 (DST-5)
Local Time:

Weather
METAR:KOCQ 040455Z AUTO 27003KT 10SM BKN110 14/14 A2985 RMK AO1 T01350135

Related Locations
Nearby:
Farthest:MGV: 11002 mi / 17706 km
Margaret River, WA, AU

Find:

   beyond  
but within

Other Information
Maps:
NOTAMs:
Links:
Sources:

  
flag of United States
flag of Wisconsin
  

Sectional Chart

Flight Planning
at skyvector.com

Satellite Image

Google Maps Satellite view

 

Copyright © 2004-2015 Karl L. Swartz. All rights reserved.
The Great Circle Mapper name and logo are trademarks of the Great Circle Mapper.
All other trademarks mentioned herein belong to their respective owners.
Please see credits for attibutions and further copyright information.

  Follow gcmap on Facebook Follow gcmap on Twitter Follow gcmap on Google+

hCard Microformat

Geo Microformat